| time (UTC) | temp F | wind direction | speed knots | gust knots | rain 1hr in | rain 24hr in | rain mn in | humidity % | barometer mb |
| 20260503173349 | 55 | 294 | 3.5 | 11.3 | 0.00 | 0.00 | 0.00 | 60 | 1016.2 |
| 20260503130325 | 44 | 293 | 2.6 | 5.2 | 0.00 | 0.00 | 0.00 | 92 | 1018.1 |
| 20260503110317 | 34 | 0 | 0.0 | 0.0 | 0.00 | 0.00 | 0.00 | 100 | 1017.0 |
| 20260503090307 | 33 | 0 | 0.0 | 0.0 | 0.00 | 0.00 | 0.00 | 100 | 1016.4 |
| 20260503081303 | 35 | 0 | 0.0 | 0.0 | 0.00 | 0.00 | 0.00 | 100 | 1016.2 |
| 20260503080302 | 35 | 0 | 0.0 | 0.0 | 0.00 | 0.00 | 0.00 | 100 | 1016.3 |
| 20260503072300 | 34 | 0 | 0.0 | 0.0 | 0.00 | 0.00 | 0.00 | 100 | 1016.1 |
| 20260503071300 | 34 | 0 | 0.0 | 0.0 | 0.00 | 0.00 | 0.00 | 100 | 1016.0 |
| 20260503070259 | 34 | 0 | 0.0 | 0.0 | 0.00 | 0.00 | 0.00 | 100 | 1016.0 |
| 20260503060257 | 35 | 0 | 0.0 | 0.0 | 0.00 | 0.00 | 0.00 | 100 | 1016.2 |
| 20260503054327 | 34 | 0 | 0.0 | 0.0 | 0.00 | 0.00 | 0.00 | 99 | 1016.2 |
| 20260503054256 | 34 | 0 | 0.0 | 0.0 | 0.00 | 0.00 | 0.00 | 99 | 1016.2 |
| 20260503053256 | 34 | 0 | 0.0 | 0.0 | 0.00 | 0.00 | 0.00 | 99 | 1016.2 |
| 20260503051255 | 35 | 0 | 0.0 | 0.0 | 0.00 | 0.00 | 0.00 | 99 | 1016.2 |
| 20260503045254 | 36 | 0 | 0.0 | 0.0 | 0.00 | 0.00 | 0.00 | 98 | 1016.3 |
| 20260503044254 | 36 | 0 | 0.0 | 0.0 | 0.00 | 0.00 | 0.00 | 98 | 1016.2 |
| 20260503035252 | 37 | 0 | 0.0 | 0.0 | 0.00 | 0.00 | 0.00 | 97 | 1016.2 |
| 20260503033251 | 37 | 0 | 0.0 | 0.0 | 0.00 | 0.00 | 0.00 | 97 | 1016.2 |
| 20260503025250 | 39 | 0 | 0.0 | 0.0 | 0.00 | 0.00 | 0.00 | 95 | 1016.3 |
| 20260503024248 | 39 | 0 | 0.0 | 0.0 | 0.00 | 0.00 | 0.00 | 95 | 1016.3 |
| 20260503020506 | 40 | 0 | 0.0 | 0.0 | 0.00 | 0.00 | 0.00 | 93 | 1016.4 |
| 20260503015246 | 40 | 0 | 0.0 | 0.0 | 0.00 | 0.00 | 0.00 | 93 | 1016.4 |
| 20260503014246 | 40 | 0 | 0.0 | 0.0 | 0.00 | 0.00 | 0.00 | 93 | 1016.3 |
| 20260503013333 | 41 | 0 | 0.0 | 0.0 | 0.00 | 0.00 | 0.00 | 93 | 1016.3 |
| 20260503012240 | 40 | 0 | 0.0 | 0.0 | 0.00 | 0.00 | 0.00 | 93 | 1016.4 |
| 20260503010239 | 41 | 0 | 0.0 | 0.0 | 0.00 | 0.00 | 0.00 | 91 | 1016.3 |
| 20260503005238 | 41 | 0 | 0.0 | 0.0 | 0.00 | 0.00 | 0.00 | 90 | 1016.2 |
| 20260503004252 | 41 | 0 | 0.0 | 0.0 | 0.00 | 0.00 | 0.00 | 89 | 1016.2 |
| 20260503003237 | 42 | 0 | 0.0 | 0.0 | 0.00 | 0.00 | 0.00 | 89 | 1016.0 |
| 20260503002237 | 42 | 49 | 0.9 | 2.6 | 0.00 | 0.00 | 0.00 | 88 | 1016.0 |
| 20260502235236 | 42 | 336 | 0.9 | 6.1 | 0.00 | 0.00 | 0.00 | 87 | 1015.8 |
| 20260502234237 | 42 | 352 | 1.7 | 4.3 | 0.00 | 0.00 | 0.00 | 87 | 1015.6 |
| 20260502233235 | 42 | 332 | 0.9 | 3.5 | 0.00 | 0.00 | 0.00 | 87 | 1015.6 |
| 20260502232234 | 42 | 353 | 2.6 | 8.7 | 0.00 | 0.00 | 0.00 | 87 | 1015.5 |
| 20260502231234 | 43 | 31 | 0.9 | 3.5 | 0.00 | 0.00 | 0.00 | 88 | 1015.5 |
| 20260502230245 | 42 | 304 | 2.6 | 7.8 | 0.00 | 0.00 | 0.00 | 89 | 1015.6 |
| 20260502225232 | 42 | 345 | 3.5 | 7.8 | 0.00 | 0.00 | 0.00 | 90 | 1015.6 |
| 20260502222244 | 43 | 347 | 2.6 | 6.1 | 0.00 | 0.00 | 0.00 | 90 | 1015.4 |
| 20260502221230 | 43 | 346 | 3.5 | 8.7 | 0.00 | 0.00 | 0.00 | 89 | 1015.4 |
| 20260502220235 | 43 | 7 | 3.5 | 7.0 | 0.00 | 0.00 | 0.00 | 89 | 1015.3 |
| 20260502215238 | 44 | 350 | 0.9 | 5.2 | 0.00 | 0.00 | 0.00 | 89 | 1015.3 |
| 20260502213251 | 44 | 347 | 3.5 | 7.8 | 0.00 | 0.00 | 0.00 | 88 | 1015.3 |
| 20260502212347 | 44 | 342 | 3.5 | 7.8 | 0.00 | 0.00 | 0.00 | 88 | 1015.1 |
| 20260502210257 | 43 | 342 | 3.5 | 13.9 | 0.00 | 0.00 | 0.00 | 87 | 1015.1 |
| 20260502210226 | 43 | 342 | 3.5 | 13.9 | 0.00 | 0.00 | 0.00 | 87 | 1015.1 |
| 20260502205258 | 44 | 349 | 1.7 | 5.2 | 0.00 | 0.00 | 0.00 | 87 | 1015.1 |
| 20260502205226 | 44 | 349 | 1.7 | 5.2 | 0.00 | 0.00 | 0.00 | 87 | 1015.1 |
| 20260502203422 | 44 | 353 | 1.7 | 5.2 | 0.00 | 0.00 | 0.00 | 88 | 1015.0 |
| 20260502203225 | 44 | 353 | 1.7 | 5.2 | 0.00 | 0.00 | 0.00 | 88 | 1015.0 |
| 20260502202223 | 44 | 354 | 5.2 | 12.2 | 0.00 | 0.00 | 0.00 | 87 | 1015.1 |
| 20260502201222 | 44 | 359 | 4.3 | 7.8 | 0.00 | 0.00 | 0.00 | 89 | 1015.1 |
| 20260502200221 | 44 | 353 | 3.5 | 7.8 | 0.00 | 0.00 | 0.00 | 91 | 1015.2 |
| 20260502195228 | 43 | 340 | 3.5 | 7.8 | 0.00 | 0.00 | 0.00 | 92 | 1015.2 |
| 20260502194220 | 42 | 350 | 4.3 | 8.7 | 0.00 | 0.00 | 0.00 | 91 | 1015.3 |
| 20260502193229 | 43 | 7 | 4.3 | 9.6 | 0.00 | 0.00 | 0.00 | 92 | 1015.4 |
| 20260502192219 | 43 | 264 | 2.6 | 7.8 | 0.00 | 0.00 | 0.00 | 91 | 1015.3 |
| 20260502191219 | 43 | 326 | 2.6 | 7.0 | 0.00 | 0.00 | 0.00 | 90 | 1015.4 |
| 20260502190219 | 44 | 316 | 1.7 | 5.2 | 0.00 | 0.00 | 0.00 | 90 | 1015.5 |
| 20260502185217 | 44 | 53 | 1.7 | 5.2 | 0.00 | 0.00 | 0.00 | 90 | 1015.5 |
| 20260502184217 | 44 | 336 | 6.1 | 9.6 | 0.00 | 0.00 | 0.00 | 90 | 1015.5 |
| 20260502183217 | 45 | 345 | 2.6 | 8.7 | 0.00 | 0.00 | 0.00 | 92 | 1015.4 |
| 20260502182216 | 43 | 328 | 4.3 | 11.3 | 0.00 | 0.00 | 0.00 | 92 | 1015.5 |
| 20260502180215 | 43 | 323 | 4.3 | 9.6 | 0.00 | 0.00 | 0.00 | 94 | 1015.5 |